www.pogodaiklimat.ru
ПОГОДА в Тейн-Рендже
Время
(UTC), дата
07 30.11
08 30.11
09 30.11
10 30.11
11 30.11
12 30.11
13 30.11
14 30.11
15 30.11
16 30.11
17 30.11
18 30.11
19 30.11
20 30.11
21 30.11
22 30.11
23 30.11
00 1.12
01 1.12
02 1.12
03 1.12
04 1.12
05 1.12
06 1.12
07 1.12
08 1.12
09 1.12
10 1.12
11 1.12
12 1.12
13 1.12
14 1.12
15 1.12
16 1.12
17 1.12
18 1.12
19 1.12
20 1.12
21 1.12
22 1.12
23 1.12
00 2.12
01 2.12
02 2.12
03 2.12
04 2.12
05 2.12
06 2.12
07 2.12
08 2.12
09 2.12
10 2.12
11 2.12
12 2.12
13 2.12
14 2.12
15 2.12
16 2.12
17 2.12
18 2.12
19 2.12
20 2.12
21 2.12
22 2.12
23 2.12
00 3.12
01 3.12
02 3.12
03 3.12
04 3.12
05 3.12
06 3.12
07 3.12
08 3.12
09 3.12
10 3.12
11 3.12
12 3.12
13 3.12
14 3.12
15 3.12
16 3.12
17 3.12
18 3.12
19 3.12
20 3.12
21 3.12
22 3.12
23 3.12
00 4.12
01 4.12
02 4.12
03 4.12
04 4.12
05 4.12
06 4.12
07 4.12
08 4.12
09 4.12
10 4.12
11 4.12
12 4.12
13 4.12
14 4.12
15 4.12
16 4.12
17 4.12
18 4.12
19 4.12
20 4.12
21 4.12
22 4.12
23 4.12
00 5.12
01 5.12
02 5.12
03 5.12
04 5.12
05 5.12
06 5.12
07 5.12
08 5.12
09 5.12
10 5.12
11 5.12
12 5.12
13 5.12
14 5.12
15 5.12
16 5.12
17 5.12
18 5.12
19 5.12
20 5.12
21 5.12
22 5.12
23 5.12
00 6.12
01 6.12
02 6.12
03 6.12
04 6.12
05 6.12
06 6.12
07 6.12
08 6.12
09 6.12
10 6.12
11 6.12
12 6.12
13 6.12
14 6.12
15 6.12
16 6.12
17 6.12
18 6.12
19 6.12
20 6.12
21 6.12
22 6.12
23 6.12
00 7.12
01 7.12
02 7.12
03 7.12
04 7.12
05 7.12
06 7.12
07 7.12
08 7.12
Ветер
(напр.,м/с)
Видим. Явления Облачность Т
(С)
Тd
(С)
f
(%)
Тe
(С)
Тes
(С)
Комфортность P
(гПа)
Po
(гПа)
Тmin
(С)
Tmax
(С)
R
(мм)
R24
(мм)
S
(см)
ЮЗ 2 50 км н/о -1.2 -2.5 91 -5 -5 холодно 1023.6 1023.1
ЮЗ 2 50 км н/о -0.9 -2.1 92 -4 -4 прохладно 1024.0 1023.5
ЮЗ 2 50 км н/о -0.6 -1.5 94 -5 -5 холодно 1024.3 1023.8
ЮЗ 1 45 км в посл. час дождь н/о +1.0 -0.2 92 -1 -1 по сезону 1024.6 1024.1
Ю 3 50 км н/о +2.0 -0.3 85 -2 -2 по сезону 1024.7 1024.2
ЮЗ 1 45 км н/о +3.2 -0.7 76 +2 +2 по сезону 1024.8 1024.3 0.0
ЮЗ 1 35 км н/о +3.5 0.0 78 +2 +2 по сезону 1024.7 1024.2
Ю 1 40 км н/о +3.6 -0.7 73 +2 +2 по сезону 1024.9 1024.4
ЮЗ 1 50 км н/о +1.9 -0.9 82 0 0 по сезону 1024.8 1024.3
ЮЗ 2 30 км н/о -0.3 -1.4 92 -4 -4 прохладно 1024.8 1024.3
З 3 8000 м дымка н/о -0.9 -1.8 94 -6 -6 холодно 1024.9 1024.4
З 2 45 км н/о -1.1 -1.6 96 -5 -5 холодно 1025.1 1024.6 +4.3 0.0
ЮЗ 2 50 км н/о -1.7 -2.5 94 -5 -5 холодно 1025.3 1024.8
З 2 30 км н/о -2.0 -3.2 91 -5 -5 холодно 1025.5 1024.9
З 2 40 км н/о -1.6 -2.3 95 -5 -5 холодно 1025.6 1025.1
ЮЗ 2 11 км н/о -1.6 -2.1 96 -6 -6 холодно 1025.5 1025.0
ЮЗ 3 50 км н/о -0.9 -1.3 97 -6 -6 холодно 1025.4 1024.9
ЮЗ 3 50 км н/о -0.9 -1.4 96 -6 -6 холодно 1025.7 1025.2
ЮЗ 3 50 км н/о 0.0 -0.8 94 -4 -4 прохладно 1025.6 1025.1
ЮЗ 3 50 км н/о -0.1 -0.7 96 -5 -5 холодно 1025.7 1025.1
ЮЗ 3 40 км н/о +0.1 -0.9 93 -5 -5 холодно 1025.8 1025.3
Ю 2 50 км н/о 0.0 -0.8 94 -3 -3 прохладно 1025.8 1025.3
ЮЗ 2 50 км н/о +0.3 -0.5 94 -4 -4 прохладно 1026.0 1025.5
З 4 45 км н/о +0.9 -0.4 91 -5 -5 холодно 1025.9 1025.4 -2.3
ЮЗ 5 50 км н/о +0.4 -1.2 89 -6 -6 холодно 1025.9 1025.4
ЮЗ 4 40 км н/о -2.0 -3.0 93 -8 -8 очень
холодно
1026.1 1025.6
ЮЗ 3 35 км н/о -0.9 -2.1 92 -6 -6 холодно 1026.6 1026.1
ЮЗ 4 45 км н/о +1.5 -0.5 87 -3 -3 прохладно 1026.6 1026.1
ЮЗ 3 50 км н/о +2.7 +0.4 85 -1 -1 по сезону 1026.8 1026.3
ЮЗ 4 35 км н/о +3.5 +1.1 84 -1 -1 по сезону 1027.0 1026.5
ЮЗ 4 50 км н/о +4.1 +1.7 84 -0 -0 по сезону 1027.1 1026.6
ЮЗ 5 40 км н/о +4.6 +2.2 84 -0 -0 по сезону 1027.1 1026.6
З 5 50 км н/о +4.3 +2.4 87 -0 -0 по сезону 1026.7 1026.2
З 4 50 км н/о +4.0 +2.0 87 -0 -0 по сезону 1027.0 1026.5
З 7 50 км н/о +5.9 +3.7 86 +1 +1 по сезону 1026.9 1026.4
З 6 45 км н/о +5.9 +3.8 86 +1 +1 по сезону 1027.2 1026.7 +6.2
З 5 40 км в посл. час дождь н/о +5.6 +4.3 91 +1 +1 по сезону 1027.2 1026.7
З 7 40 км н/о +5.8 +4.4 91 +1 +1 по сезону 1026.9 1026.4
З 6 22 км дым н/о +6.1 +4.8 91 +1 +1 по сезону 1027.0 1026.5
ЮЗ 4 40 км н/о +3.9 +2.5 91 -0 -0 по сезону 1027.2 1026.7
ЮЗ 4 35 км н/о +5.1 +3.5 89 +1 +1 по сезону 1027.0 1026.5
ЮЗ 4 50 км н/о +5.4 +3.3 86 +1 +1 по сезону 1027.1 1026.6 0.0
З 5 50 км н/о +5.6 +3.3 85 +1 +1 по сезону 1026.5 1026.0
З 2 50 км н/о +6.0 +3.3 83 +4 +4 по сезону 1026.5 1026.0
З 3 50 км н/о +5.6 +3.6 87 +2 +2 по сезону 1026.3 1025.8
З 5 19 км слаб. ливневой дождь н/о +6.1 +4.5 89 +2 +2 по сезону 1026.1 1025.6
ЮЗ 4 16 км слаб. дождь н/о +6.2 +5.1 93 +2 +2 по сезону 1026.1 1025.6
ЮЗ 4 20 км слаб. дождь н/о +6.2 +5.3 94 +2 +2 по сезону 1025.7 1025.2 +3.3 0.4 0.4
ЮЗ 5 50 км слаб. дождь н/о +6.2 +5.3 94 +2 +2 по сезону 1025.6 1025.1
ЮЗ 3 50 км в посл. час дождь н/о +5.5 +4.9 96 +2 +2 по сезону 1025.6 1025.1
ЮЗ 5 45 км в посл. час дождь н/о +6.2 +5.0 92 +2 +2 по сезону 1025.1 1024.6
ЮЗ 4 50 км н/о +6.3 +4.8 90 +3 +3 по сезону 1024.9 1024.4
ЮЗ 5 50 км слаб. ливневой дождь н/о +6.8 +4.6 86 +3 +3 по сезону 1025.1 1024.6
ЮЗ 3 30 км дождь н/о +6.4 +5.5 94 +3 +3 по сезону 1024.3 1023.8 0.8
ЮЗ 2 11 км дождь н/о +6.8 +5.4 91 +5 +5 тепло 1023.5 1023.0
ЮЗ 5 16 км дождь н/о +6.4 +5.6 95 +2 +2 по сезону 1022.3 1021.8
ЮЗ 6 16 км дождь н/о +6.8 +6.1 95 +2 +2 по сезону 1021.5 1021.0
ЮЗ 6 50 км слаб. дождь н/о +7.6 +7.1 97 +3 +3 по сезону 1020.8 1020.3
ЮЗ 9 35 км слаб. дождь н/о +8.8 +7.6 92 +4 +4 по сезону 1020.3 1019.8
ЮЗ 9
{13}
7000 м дождь н/о +9.1 +7.8 92 +4 +4 по сезону 1020.4 1019.9 +9.3 8
ЮЗ 8
{13}
50 км слаб. дождь н/о +9.5 +7.9 90 +5 +5 тепло 1020.1 1019.6
З 7 50 км в посл. час дождь н/о +9.4 +7.6 89 +5 +5 тепло 1020.3 1019.8
ЮЗ 4 50 км н/о +9.4 +7.6 89 +6 +6 тепло 1020.5 1020.0
ЮЗ 7 50 км н/о +9.7 +7.7 87 +6 +6 тепло 1020.2 1019.7
З 5 40 км н/о +9.3 +7.1 86 +6 +6 тепло 1020.5 1020.0
ЮЗ 5 35 км н/о +8.8 +6.6 86 +5 +5 тепло 1020.2 1019.7 0.8
ЮВ 3 19 км н/о +8.1 +5.8 85 +6 +6 тепло 1020.1 1019.6
ЮЗ 7 40 км н/о +8.4 +5.4 81 +4 +4 по сезону 1019.7 1019.2
ЮЗ 6 45 км н/о +7.7 +4.8 82 +3 +3 по сезону 1019.5 1019.0
ЮЗ 4 35 км н/о +6.3 +4.4 88 +2 +2 по сезону 1018.9 1018.4
ЮЗ 4 35 км н/о +6.5 +3.9 83 +3 +3 по сезону 1018.4 1017.9
Ю 2 45 км н/о +7.9 +4.0 76 +6 +6 тепло 1018.1 1017.6 +5.5 0.8 9.0
ЮЗ 3 45 км н/о +6.9 +4.1 82 +4 +4 по сезону 1017.9 1017.4
Ю 4 40 км н/о +5.9 +2.9 81 +2 +2 по сезону 1017.6 1017.1
ЮЗ 4 40 км н/о +7.1 +3.9 80 +4 +4 по сезону 1017.3 1016.8
Ю 5 25 км н/о +7.0 +4.0 81 +3 +3 по сезону 1017.1 1016.6
Ю 2 35 км н/о +7.3 +4.4 82 +6 +6 тепло 1016.8 1016.3
ЮЗ 5 35 км н/о +9.0 +5.0 76 +6 +6 тепло 1016.0 1015.5
Ю 6 40 км н/о +9.2 +5.2 76 +6 +6 тепло 1015.0 1014.5
Ю 8 25 км н/о +9.0 +4.9 75 +5 +5 тепло 1014.0 1013.5
ЮЗ 7 50 км н/о +8.0 +4.3 77 +4 +4 по сезону 1013.7 1013.2
Ю 7 40 км н/о +7.4 +4.0 79 +3 +3 по сезону 1013.5 1013.0
ЮЗ 4 30 км н/о +5.5 +2.7 82 +2 +2 по сезону 1013.1 1012.6
ЮЗ 5 45 км н/о +5.5 +2.7 82 +1 +1 по сезону 1013.1 1012.6 +9.3
ЮЗ 6 45 км н/о +4.5 +2.6 87 -1 -1 по сезону 1012.8 1012.3
Ю 5 30 км н/о +4.1 +2.1 87 -1 -1 по сезону 1012.5 1012.0
Ю 3 45 км н/о +3.1 +1.1 87 -1 -1 по сезону 1012.1 1011.6
ЮЗ 3 45 км н/о +3.5 +1.1 84 0 0 по сезону 1011.5 1011.0
Ю 4 40 км н/о +4.8 +2.1 83 +1 +1 по сезону 1010.5 1010.0
ЮЗ 6 50 км н/о +6.8 +3.3 78 +3 +3 по сезону 1010.3 1009.9
З 2 35 км н/о +6.4 +2.9 78 +4 +4 по сезону 1009.9 1009.4
ЮЗ 6 30 км н/о +6.8 +3.6 80 +2 +2 по сезону 1009.3 1008.8
ЮЗ 4 30 км н/о +6.8 +3.9 82 +3 +3 по сезону 1008.5 1008.1
ЮЗ 5 50 км н/о +7.6 +4.3 80 +4 +4 по сезону 1007.7 1007.2
ЮЗ 4 50 км н/о +7.7 +4.6 81 +5 +5 тепло 1007.2 1006.8
Ю 3 50 км н/о +7.3 +4.0 80 +5 +5 тепло 1006.8 1006.3 +2.8
ЮЗ 6 35 км н/о +7.6 +4.7 82 +3 +3 по сезону 1006.2 1005.7
ЮЗ 5 50 км н/о +7.8 +4.7 81 +4 +4 по сезону 1005.6 1005.1
Ю 8 50 км н/о +8.1 +4.9 80 +4 +4 по сезону 1005.4 1005.0
ЮЗ 6 50 км н/о +8.2 +4.9 80 +4 +4 по сезону 1005.0 1004.6
ЮЗ 10
{13}
45 км слаб. морось с дождем н/о +8.7 +5.9 83 +4 +4 по сезону 1004.1 1003.6
ЮЗ 7
{13}
16 км ливневой дождь н/о +8.0 +6.7 91 +4 +4 по сезону 1004.8 1004.4 0.4
ЮЗ 5 35 км в посл. час дождь н/о +7.6 +5.9 89 +4 +4 по сезону 1004.8 1004.3
ЮЗ 7 30 км н/о +8.1 +4.6 79 +4 +4 по сезону 1004.9 1004.4
ЮЗ 5 28 км н/о +7.6 +2.6 71 +4 +4 по сезону 1004.8 1004.3
ЮЗ 4 45 км в посл. час дождь н/о +6.3 +3.1 80 +3 +3 по сезону 1005.6 1005.1
З 5 35 км слаб. ливневой дождь н/о +6.4 +3.0 79 +2 +2 по сезону 1005.5 1005.0
ЮЗ 6 45 км в посл. час дождь н/о +5.6 +2.5 80 +1 +1 по сезону 1005.3 1004.8 +8.8 0.8
ЮЗ 6 26 км н/о +5.7 +1.8 76 +1 +1 по сезону 1005.1 1004.6
ЮЗ 8 50 км н/о +6.0 +1.7 74 +1 +1 по сезону 1005.4 1004.9
ЮЗ 7 40 км н/о +5.7 +1.5 74 +1 +1 по сезону 1005.0 1004.5
ЮЗ 6
{14}
35 км н/о +5.3 +0.8 73 +1 +1 по сезону 1004.9 1004.4
ЮЗ 7 30 км н/о +6.8 +1.7 70 +2 +2 по сезону 1004.3 1003.9
ЮЗ 7
{14}
50 км н/о +5.5 +1.6 76 0 0 по сезону 1004.0 1003.6
ЮЗ 5 45 км в посл. час дождь н/о +6.1 +2.6 78 +2 +2 по сезону 1003.5 1003.0
ЮЗ 8
{13}
50 км в посл. час дождь н/о +5.9 +2.3 78 +1 +1 по сезону 1002.6 1002.1
З 9
{16}
45 км н/о +6.6 +2.3 74 +1 +1 по сезону 1002.1 1001.6
З 11
{15}
35 км н/о +7.2 +2.9 74 +2 +2 по сезону 1001.3 1000.9
З 10
{17}
45 км н/о +7.7 +3.3 74 +3 +3 по сезону 1000.7 1000.2
ЮЗ 7
{13}
35 км слаб. ливневой дождь н/о +7.4 +3.4 76 +3 +3 по сезону 1000.4 999.9 +3.8 0.0 0.8
З 10
{14}
50 км в посл. час дождь н/о +8.6 +4.0 73 +4 +4 по сезону 999.6 999.1
ЮЗ 5
{17}
50 км н/о +8.3 +4.3 76 +5 +5 тепло 999.2 998.7
ЮЗ 9 40 км н/о +9.4 +4.8 73 +5 +5 тепло 998.9 998.5
ЮЗ 8
{16}
50 км н/о +8.8 +5.2 78 +4 +4 по сезону 997.9 997.4
ЮЗ 8 45 км н/о +8.7 +4.7 76 +4 +4 по сезону 996.0 995.5
ЮЗ 8
{13}
40 км н/о +8.6 +5.9 83 +4 +4 по сезону 994.8 994.4 0.0
ЮЗ 6 28 км н/о +8.8 +6.0 83 +5 +5 тепло 992.9 992.4
ЮЗ 5 9000 м дым н/о +8.3 +6.6 89 +5 +5 тепло 990.8 990.3
ЮЗ 5 30 км слаб. дождь н/о +8.4 +6.8 90 +5 +5 тепло 988.6 988.2
ЮЗ 7 25 км слаб. дождь н/о +8.6 +7.5 93 +4 +4 по сезону 986.6 986.1
ЮЗ 7 23 км дождь н/о +8.7 +8.0 95 +4 +4 по сезону 985.5 985.0
З 2 9000 м дождь н/о +8.8 +8.4 97 +7 +7 тепло 985.3 984.8 +9.4 3
З 3 9000 м дождь н/о +9.9 +9.6 98 +7 +7 тепло 986.3 985.8
СЗ 7 35 км в посл. час дождь н/о +9.7 +9.0 95 +6 +6 тепло 987.5 987.1
З 5 35 км н/о +9.2 +8.4 95 +6 +6 тепло 989.1 988.6
СЗ 4 45 км в посл. час дождь н/о +9.1 +8.1 93 +6 +6 тепло 989.9 989.4
З 2 50 км н/о +8.6 +7.9 95 +7 +7 тепло 989.9 989.4
Ю 2 50 км н/о +7.6 +7.0 96 +6 +6 тепло 989.7 989.2 4
Ю 1 50 км н/о +8.0 +7.6 97 +7 +7 тепло 988.9 988.4
ЮЗ 5 50 км н/о +9.4 +7.9 90 +6 +6 тепло 988.6 988.1
Ю 2 50 км слаб. ливневой дождь н/о +9.1 +7.6 90 +8 +8 тепло 988.7 988.3
ЮЗ 3 35 км ливневой дождь н/о +9.7 +8.4 92 +7 +7 тепло 988.4 988.0
ЮЗ 4 50 км в посл. час дождь н/о +9.6 +8.1 90 +7 +7 тепло 988.2 987.7
ЮЗ 4 40 км н/о +9.6 +8.0 90 +7 +7 тепло 987.7 987.2 +7.3 4 6.8
ЮЗ 3 50 км н/о +9.4 +8.0 91 +7 +7 тепло 987.9 987.4
З 3 35 км слаб. ливневой дождь н/о +10.0 +8.5 90 +8 +8 тепло 988.0 987.5
З 3 45 км ливневой дождь н/о +8.6 +7.9 95 +6 +6 тепло 988.2 987.8
ЮЗ 2 50 км в посл. час дождь н/о +9.1 +7.7 91 +7 +7 тепло 988.7 988.3
СЗ 4 50 км н/о +8.8 +6.8 87 +6 +6 тепло 989.5 989.0
ЮЗ 3 50 км н/о +8.9 +7.1 88 +6 +6 тепло 989.7 989.2 0.4
ЮЗ 2 50 км н/о +8.7 +7.2 90 +7 +7 тепло 989.9 989.4
З 4 50 км н/о +9.4 +5.9 79 +7 +7 тепло 990.0 989.5
З 2 50 км н/о +9.1 +6.0 81 +7 +7 тепло 990.2 989.8
З 3 50 км н/о +8.4 +5.8 84 +6 +6 тепло 991.1 990.6
З 2 50 км н/о +7.5 +5.4 87 +5 +5 тепло 992.3 991.8
С 7 35 км в посл. час дождь н/о +7.5 +6.1 91 +3 +3 по сезону 994.4 993.9 +10.0 0.4
СЗ 6 50 км в посл. час дождь н/о +6.6 +5.2 91 +2 +2 по сезону 996.2 995.7
СЗ 4 45 км н/о +5.4 +4.3 93 +1 +1 по сезону 997.5 997.0
З 4 21 км слаб. ливневой дождь н/о +5.9 +4.5 91 +2 +2 по сезону 998.1 997.6
З 3 50 км в посл. час дождь н/о +4.6 +3.3 91 +1 +1 по сезону 998.4 997.9
З 4 50 км н/о +5.8 +3.6 86 +2 +2 по сезону 999.0 998.5
ЮЗ 3 50 км в посл. час дождь н/о +4.4 +2.3 86 +1 +1 по сезону 999.7 999.3 0.2
З 5 50 км н/о +5.3 +2.9 84 +1 +1 по сезону 1000.0 999.5
ЮЗ 3 50 км н/о +4.9 +2.8 86 +2 +2 по сезону 1000.3 999.8
З 4 30 км слаб. ливневой дождь н/о +5.7 +4.3 91 +2 +2 по сезону 1001.0 1000.6
З 7 50 км в посл. час дождь н/о +6.5 +3.2 79 +2 +2 по сезону 1001.5 1001.0
СЗ 5 35 км в посл. час дождь н/о +5.6 +3.7 88 +1 +1 по сезону 1002.2 1001.7
Ю 3 50 км в посл. час дождь н/о +5.3 +3.9 91 +2 +2 по сезону 1002.0 1001.5 +3.3 0.8 1.2
ЮЗ 1 45 км н/о +5.4 +3.8 89 +4 +4 по сезону 1002.1 1001.6
ЮЗ 3 45 км н/о +3.9 +3.1 95 0 0 по сезону 1002.0 1001.5
Местоположение метеостанции Тейн-Рендж (Великобритания): широта 57.82 долгота -3.97 высота над уровнем моря 4 м.
В архиве по умолчанию представлена погода в Тейн-Рендже за последнюю неделю. Архивные данные за месяц целиком и за предыдущие месяцы, начиная с января 2011 года, Вы можете получить, выбрав интересующий диапазон дат из раскрывающегося списка и нажав кнопку "Найти!".
*Определитесь, кто Вы:
Внимание! Время в таблицах - всемирное. Для получения местного времени необходимо прибавить поправку, которая равна 0 ч.
Смотрите также архив погоды в соседних городах и на ближайших метеорологических станциях:
Партнеры нашего сайта:      
Пояснения к столбцам:
  • Ветер - указаны скорость ветра в м/с - средняя за 10 мин, порывы в срок и между сроками (в фигурных скобках) и направление, откуда дует ветер: С - северный,
  • СВ - северо-восточный, В - восточный, ЮВ - юго-восточный, Ю - южный, ЮЗ - юго-западный, З - западный, СЗ - северо-западный.
  • Видимость - горизонтальная дальность видимости в метрах или километрах. При видимости от 1 до 10 км при отсутствии осадков обычно наблюдается дымка, при ухудшении видимости до 1 км и менее - туман. В сухую погоду видимость может ухудшаться дымом, пылью или мглою.
  • Явления - указаны атмосферные явления, наблюдавшиеся в срок или в последний час перед сроком; фигурными скобками обозначены явления, наблюдавшиеся между сроками (за 1-3 часа до срока); квадратными скобками обозначены град или гололедные отложения с указанием их диаметра в мм.
  • Облачность - указаны через наклонную черту общая и нижняя облачность в баллах и высота нижней границы облаков в метрах; квадратными скобками обозначены формы облаков: Ci - перистые, Cs - перисто-слоистые, Cc - перисто-кучевые, Ac - высококучевые, As - высокослоистые, Sc - слоисто-кучевые, Ns - слоисто-дождевые, Cu - кучевые, Cb - кучево-дождевые. Подробнее классификацию облаков см. в Атласе облаков (PDF).
  • T - Температура воздуха - температура, измеренная на высоте 2 м над землей.
  • Td - Температура точки росы - температура, при понижении до которой содержащийся в воздухе водяной пар достигнет насыщения.
  • f - Относительная влажность воздуха - влажноcть воздуха, измеренная на высоте 2 м над землей.
  • Te - Эффективная температура - температура, которую ощущает одетый по сезону человек в тени. Характеристика душности погоды. При расчете учитывается влияние влажности воздуха и скорости ветра на теплоощущения человека.
  • Tes - Эффективная температура на солнце - температура, которую ощущает человек, с поправкой на солнечный нагрев. Характеристика знойности погоды. Зависит от высоты солнца над горизонтом, облачности и скорости ветра. Ночью, в пасмурную погоду, а также при ветре 12 м/с и более поправка равна нулю.
  • P - Атмосферное давление - приведенное к уровню моря атмосферное давление.
  • Po - Атмосферное давление - измеренное на уровне метеостанции атмосферное давление.
  • Tmin - Минимальная температура - минимум температуры воздуха на высоте 2 м над землей.
  • Tmax - Максимальная температура - максимум температуры воздуха на высоте 2 м над землей.
  • R - Количество осадков - Количество выпавших осадков за период времени, мм. При наведении курсора мыши на число - период времени, за который выпало указанное количество осадков.
  • R24 - Количество осадков - Количество выпавших осадков за 24 часа, мм.
  • S - Снежный покров - Высота снежного покрова, см. При наведении курсора мыши на число - состояние снежного покрова и степень покрытия местности в баллах.